Location: Gorze? G�rny
(49.8500°N, 19.5000°E)
Time: 13:17:15
(UTC+00:00)

Terra - Pass Details

Date: 13 May 2021
Orbit: 701 x 703 km, 98.2° (Epoch: 22 June)

Event Time Altitude Azimuth Distance (km) Brightness Sun altitude
Exits shadow 19:41:23 15° 126° (SE) 1,856 3.4 -11.2°
Maximum altitude 19:44:51 37° 66° (ENE) 1,103 2.7 -11.6°
Drops below altitude 10° 19:49:13 10° 0° (N) 2,184 5.1 -12.0°
Sets 19:51:36 0° 352° (N) 3,107 6.2 -12.3°
